Holland, MI

3:39 PM EDT on July 24, 2017 (GMT -0400)
Tulip City

Weather History for KBIV - April, 2013

Change the Weather History Date:

Tuesday, April 30, 2013

  Actual Average Record
Temperature  
Mean Temperature 71 °F 54 °F  
Max Temperature 83 °F 64 °F 83 °F (1962)
Min Temperature 59 °F 44 °F 27 °F (1969)
Degree Days  
Heating Degree Days 0 12  
Month to date heating degree days 561 505  
Since 1 July heating degree days 5803 5879  
Cooling Degree Days 6 0  
Month to date cooling degree days 6 4  
Year to date cooling degree days 6 4  
Growing Degree Days 20 (Base 50)    
Moisture  
Dew Point 55 °F    
Average Humidity 58    
Maximum Humidity 72    
Minimum Humidity 43    
Precipitation  
Precipitation 0.11 in 0.17 in 2.58 in (1963)
Month to date precipitation 9.08 3.25  
Year to date precipitation 15.84 9.41  
Sea Level Pressure  
Sea Level Pressure 29.88 in    
Wind  
Wind Speed 13 mph (SSE)    
Max Wind Speed 23 mph    
Max Gust Speed 28 mph    
Visibility 10 miles    
Events Rain , Thunderstorm    
T = Trace of Precipitation, MM = Missing Value Source: NWS Daily Summary

Daily Weather History Graph

Daily Weather History Graph

Search for Another Location

Airport or City:

Trip Planner

Search our weather history database for the weather conditions in past years. The results will help you decide how hot, cold, wet, or windy it might be!

Date:

Astronomy

Apr. 30, 2013 Rise Set
Actual Time 6:39 AM EDT 8:44 PM EDT
Civil Twilight 6:09 AM EDT 9:14 PM EDT
Nautical Twilight 5:31 AM EDT 9:52 PM EDT
Astronomical Twilight 4:50 AM EDT 10:34 PM EDT
Moon 1:08 AM EDT (4/30) 11:06 AM EDT (4/30)
Length of Visible Light 15h 05m
Length of Day
14h 04m
Waning Gibbous, 70% of the Moon is Illuminated
Apr 30
Waning Gibbous
May 2
Last Quarter
May 9
New
May 18
First Quarter
May 25
Full

Hourly Weather History & Observations

Time (EDT) Temp. Heat Index Dew Point Humidity Pressure Visibility Wind Dir Wind Speed Gust Speed Precip Events Conditions
12:53 AM 61.0 °F - 51.1 °F 70% 29.87 in 10.0 mi SSE 9.2 mph - N/A   Clear
1:53 AM 61.0 °F - 52.0 °F 72% 29.87 in 10.0 mi SSE 11.5 mph - N/A   Clear
2:53 AM 62.1 °F - 51.1 °F 67% 29.86 in 10.0 mi SSE 11.5 mph - N/A   Overcast
3:53 AM 63.0 °F - 51.1 °F 65% 29.87 in 10.0 mi South 8.1 mph - N/A   Scattered Clouds
4:53 AM 61.0 °F - 52.0 °F 72% 29.85 in 7.0 mi SSE 17.3 mph - 0.07 in Rain Rain
5:36 AM 60.8 °F - 51.8 °F 72% 29.86 in 10.0 mi SSE 10.4 mph - 0.00 in Thunderstorm Mostly Cloudy
5:53 AM 61.0 °F - 52.0 °F 72% 29.85 in 10.0 mi SE 12.7 mph - 0.00 in Thunderstorm Mostly Cloudy
6:07 AM 60.8 °F - 51.8 °F 72% 29.84 in 10.0 mi SSE 11.5 mph - N/A Thunderstorm Mostly Cloudy
6:53 AM 59.0 °F - 52.0 °F 78% 29.84 in 10.0 mi SE 11.5 mph - 0.04 in Rain , Thunderstorm Light Thunderstorms and Rain
7:17 AM 59.0 °F - 51.8 °F 77% 29.86 in 10.0 mi SE 11.5 mph - 0.00 in   Mostly Cloudy
7:40 AM 60.8 °F - 51.8 °F 72% 29.86 in 10.0 mi ESE 9.2 mph - 0.00 in Thunderstorm Mostly Cloudy
7:53 AM 60.1 °F - 52.0 °F 75% 29.86 in 10.0 mi SE 11.5 mph - 0.00 in   Mostly Cloudy
8:45 AM 60.8 °F - 53.6 °F 77% 29.89 in 10.0 mi SE 8.1 mph - N/A Thunderstorm Scattered Clouds
8:53 AM 61.0 °F - 53.1 °F 75% 29.89 in 10.0 mi ESE 8.1 mph - N/A Thunderstorm Scattered Clouds
9:20 AM 62.6 °F - 53.6 °F 72% 29.90 in 10.0 mi SE 11.5 mph - N/A   Partly Cloudy
9:53 AM 64.0 °F - 55.0 °F 73% 29.91 in 10.0 mi SE 10.4 mph - N/A   Clear
10:53 AM 66.0 °F - 55.0 °F 68% 29.90 in 10.0 mi SSE 13.8 mph - N/A   Clear
11:53 AM 69.1 °F - 55.9 °F 63% 29.90 in 10.0 mi SE 17.3 mph 27.6 mph N/A   Clear
12:53 PM 71.1 °F - 57.0 °F 61% 29.88 in 10.0 mi SE 15.0 mph 23.0 mph N/A   Clear
1:53 PM 73.9 °F - 57.9 °F 57% 29.88 in 10.0 mi SSE 13.8 mph - N/A   Clear
2:53 PM 81.0 °F 81.3 °F 59.0 °F 47% 29.87 in 10.0 mi SSE 15.0 mph 23.0 mph N/A   Clear
3:53 PM 82.0 °F 82.0 °F 57.9 °F 44% 29.86 in 10.0 mi SSE 16.1 mph - N/A   Clear
4:53 PM 82.9 °F 82.8 °F 59.0 °F 44% 29.85 in 10.0 mi SSE 17.3 mph 21.9 mph N/A   Clear
5:53 PM 82.9 °F 82.6 °F 57.9 °F 42% 29.86 in 10.0 mi South 17.3 mph 23.0 mph N/A   Clear
6:53 PM 82.0 °F 82.0 °F 57.9 °F 44% 29.87 in 10.0 mi South 16.1 mph 23.0 mph N/A   Clear
7:53 PM 79.0 °F - 57.9 °F 48% 29.89 in 10.0 mi South 17.3 mph 27.6 mph N/A   Clear
8:53 PM 75.9 °F - 57.9 °F 54% 29.91 in 10.0 mi South 10.4 mph - N/A   Clear
9:53 PM 75.9 °F - 59.0 °F 56% 29.95 in 10.0 mi SSE 11.5 mph - N/A   Clear
10:53 PM 75.0 °F - 59.0 °F 57% 29.96 in 10.0 mi South 13.8 mph 19.6 mph N/A   Clear
11:53 PM 73.0 °F - 59.0 °F 61% 29.96 in 10.0 mi SSE 11.5 mph - N/A   Clear